This is the latest recevied weather packets stored in our database for station/object IR9AK-10. If no packets are shown the sender has not sent any weather packets the latest 10 day(s).
| Time | Temp. | Humidity | Pressure | Rain* | Wind** | Luminosity | Snow |
|---|---|---|---|---|---|---|---|
| 1777715095 | 17.78° C | 46% | 1066.8 hPa | - | - | - | - |
| 1777714497 | 17.78° C | 44% | 1066.9 hPa | - | - | - | - |
| 1777713898 | 17.78° C | 45% | 1066.8 hPa | - | - | - | - |
| 1777713299 | 17.78° C | 45% | 1066.8 hPa | - | - | - | - |
| 1777712701 | 17.78° C | 45% | 1066.8 hPa | - | - | - | - |
| 1777712102 | 17.78° C | 44% | 1066.7 hPa | - | - | - | - |
| 1777711515 | 17.78° C | - | - | - | - | - | - |
| 1777711502 | 17.78° C | 46% | 1066.6 hPa | - | - | - | - |
| 1777710903 | 17.78° C | 45% | 1066.5 hPa | - | - | - | - |
| 1777710304 | 17.78° C | 46% | 1066.5 hPa | - | - | - | - |
| 1777709705 | 17.78° C | 46% | 1066.4 hPa | - | - | - | - |
| 1777709105 | 17.78° C | 47% | 1066.6 hPa | - | - | - | - |
| 1777708505 | 17.78° C | 47% | 1066.5 hPa | - | - | - | - |
| 1777707906 | 17.22° C | 48% | 1066.6 hPa | - | - | - | - |
| 1777707308 | 17.22° C | 46% | 1066.5 hPa | - | - | - | - |
| 1777706709 | 17.22° C | 46% | 1066.4 hPa | - | - | - | - |
| 1777706109 | 17.22° C | 46% | 1066.3 hPa | - | - | - | - |
| 1777705511 | 17.22° C | 44% | 1066.4 hPa | - | - | - | - |
| 1777704912 | 17.22° C | 45% | 1066.2 hPa | - | - | - | - |
| 1777704314 | 17.22° C | 46% | 1066.2 hPa | - | - | - | - |
| 1777703715 | 16.67° C | 45% | 1066.2 hPa | - | - | - | - |
| 1777703115 | 16.67° C | 44% | 1066.2 hPa | - | - | - | - |
| 1777702517 | 16.67° C | 45% | 1066.1 hPa | - | - | - | - |
| 1777701918 | 16.67° C | 48% | 1066.1 hPa | - | - | - | - |
| 1777701319 | 16.67° C | 50% | 1066 hPa | - | - | - | - |
* Rain since midnight (hover to see other rain measurements)
** Current wind speed in m/s (hover to see current wind gust speed)